Regional Weather Roundup
Issued by NWS Cleveland, OH

Home | Current Version | Previous Version | Text Only | Print | Product List | Glossary Off
Versions: 1 2 3 4 5 6 7 8 9 10 11 12 13 14 15 16 17 18 19 20 21 22 23 24 25 26 27 28 29 30 31 32 33 34 35 36 37 38 39 40 41 42 43 44 45 46 47 48 49 50

000
ASUS41 KCLE 030010
RWRCLE
OHIO REGIONAL WEATHER ROUNDUP
NATIONAL WEATHER SERVICE CLEVELAND, OH
800 PM EDT TUE JUN 02 2015

NOTE: "FAIR" INDICATES FEW OR NO CLOUDS BELOW 12,000 FEET WITH NO
SIGNIFICANT WEATHER AND/OR OBSTRUCTIONS TO VISIBILITY.

OHZ001>008-015>018-024>027-034-035-043-044-030100-
   NORTHWEST OHIO

CITY           SKY/WX    TMP DP  RH WIND       PRES   REMARKS
DEFIANCE       SUNNY     65  47  52 E7        30.12S
FINDLAY        CLEAR     65  48  54 E9        30.10R
TOLEDO EXPRESS CLEAR     63  40  42 E13       30.13R
TOLEDO EXEC    CLEAR     63  46  54 E9        30.14R
LIMA           PTCLDY    65  52  62 N10       30.10R
$$

OHZ009>014-019>023-028>033-038-089-030100-
   NORTHEAST OHIO

CITY           SKY/WX    TMP DP  RH WIND       PRES   REMARKS
CLE-HOPKINS    PTCLDY    62  50  64 N13       30.12S
CLE-LAKEFRONT  PTCLDY    60  53  77 NE14      30.10S
CUY CO. ARPT   PTCLDY    63 N/A N/A NE14      30.12R
LORAIN-ELYRIA  CLEAR     60  50  69 NE12      30.11S
ASHTABULA      CLEAR     61  48  62 NE5       30.14R
AKRON-CANTON   PTCLDY    65  53  65 SE6       30.11R
WOOSTER        CLEAR     64  54  69 SE8       30.11R
MANSFIELD      CLOUDY    63  53  70 NE8       30.10R
YOUNGSTOWN     MOCLDY    68  51  54 E5        30.10S
$$

OHZ042-051>053-060>062-070>072-077>081-030100-
  SOUTHWEST OHIO

CITY           SKY/WX    TMP DP  RH WIND       PRES   REMARKS
CINC-COVINGTON CLOUDY    61  52  72 E7        30.09R
CINC-LUNKEN    CLOUDY    62  53  72 NE5       30.10R
HAMILTON       MOCLDY    63  53  70 CALM      30.11R
DAYTON         MOCLDY    65  54  67 E5        30.10R
WRIGHT-PAT AFB MOCLDY    64  53  67 CALM      30.09R
DAYTON GENERAL CLOUDY    62  53  72 N3        30.09R
WILMINGTON     MOCLDY    62  51  67 E6        30.08R
$$

OHZ036-037-039>041-045>050-054>059-063>069-073>076-082>088-030100-
  CENTRAL AND SOUTHEAST OHIO

CITY           SKY/WX    TMP DP  RH WIND       PRES   REMARKS
COLUMBUS       PTCLDY    62  53  72 E9        30.09R
OSU AIRPORT    CLOUDY    64  53  67 E7        30.09R
BOLTON FIELD   NOT AVBL
RICKENBACK AFB CLOUDY    61  52  72 E7        30.09R
NEWARK         CLOUDY    61  52  72 E7        30.10R
MARION         PTCLDY    66  55  67 N13       30.09R
LANCASTER      CLOUDY    61  52  72 E5        30.10S
ZANESVILLE     NOT AVBL
NEW PHILLY     CLOUDY    65  53  65 NE3       30.11S
$$


USA.gov is the U.S. government's official web portal to all federal, state and local government web resources and services.